EST,Max TemperatureF,Mean TemperatureF,Min TemperatureF,Max Dew PointF,MeanDew PointF,Min DewpointF,Max Humidity, Mean Humidity, Min Humidity, Max Sea Level PressureIn, Mean Sea Level PressureIn, Min Sea Level PressureIn, Max VisibilityMiles, Mean VisibilityMiles, Min VisibilityMiles, Max Wind SpeedMPH, Mean Wind SpeedMPH, Max Gust SpeedMPH,PrecipitationIn, CloudCover, Events, WindDirDegrees
2012-11-1,49,46,42,33,29,23,62,49,36,29.85,29.79,29.74,10,10,10,28,15,36,0.00,6,,295
2012-11-2,56,49,42,27,23,20,53,39,24,30.01,29.88,29.83,10,10,8,24,9,32,T,3,Rain,298
2012-11-3,59,49,38,39,27,21,89,57,24,30.13,30.07,30.01,10,10,8,20,7,23,0.09,2,Rain,331
2012-11-4,53,47,40,42,38,28,89,69,49,30.10,30.06,30.00,10,10,5,13,4,16,0.05,6,Rain,120
2012-11-5,55,43,31,29,27,25,85,59,32,30.15,30.10,30.05,10,10,10,12,3,14,0.00,0,,2
2012-11-6,41,35,28,30,27,24,85,75,64,30.21,30.11,30.01,10,10,10,6,1,,0.00,5,,131
2012-11-7,52,41,29,31,29,27,85,66,46,29.99,29.94,29.87,10,10,7,14,4,17,0.00,5,,24
2012-11-8,58,48,38,27,19,15,60,40,19,30.18,30.08,29.98,10,10,10,22,8,25,0.00,0,,313
2012-11-9,67,50,33,29,26,23,70,46,22,30.27,30.22,30.18,10,10,10,12,3,16,0.00,0,,302
2012-11-10,72,54,35,32,29,25,70,44,18,30.37,30.32,30.26,10,10,10,9,2,14,0.00,0,,217
2012-11-11,73,55,37,46,35,31,76,51,25,30.48,30.42,30.36,10,10,10,17,4,21,0.00,1,,143
2012-11-12,65,61,57,59,54,43,86,74,62,30.41,30.27,30.16,10,9,2,16,7,21,T,8,Rain,146
2012-11-13,52,43,34,41,29,23,83,60,36,30.48,30.37,30.26,10,10,9,20,8,26,0.13,3,Rain,333
2012-11-14,47,38,28,27,25,23,78,60,42,30.56,30.48,30.43,10,10,10,8,3,10,0.00,0,,38
2012-11-15,48,38,28,29,27,25,85,65,45,30.42,30.36,30.30,10,10,9,7,1,10,0.00,0,,109
2012-11-16,56,42,27,31,28,24,92,61,30,30.46,30.36,30.32,10,10,10,14,3,17,0.00,0,,38
2012-11-17,57,43,28,30,26,25,85,58,30,30.58,30.53,30.46,10,10,10,13,4,15,0.00,0,,30
2012-11-18,55,47,38,34,30,26,64,55,46,30.58,30.52,30.46,10,10,10,15,8,18,0.00,5,,24
2012-11-19,55,46,37,38,36,33,79,67,54,30.46,30.36,30.25,10,10,10,10,5,17,0.00,5,,37
2012-11-20,54,45,35,40,37,33,92,76,59,30.24,30.17,30.09,10,10,10,6,1,8,0.00,1,,57
2012-11-21,61,46,30,36,31,24,100,63,25,30.24,30.19,30.15,10,9,5,10,2,14,0.00,0,,50
2012-11-22,63,46,29,32,27,23,92,57,21,30.31,30.24,30.19,10,10,10,8,1,12,0.00,0,,48
2012-11-23,62,46,30,42,32,25,75,56,36,30.17,30.02,29.89,10,10,10,30,9,44,0.00,1,,270
2012-11-24,45,37,28,26,18,15,56,47,37,30.17,30.06,29.94,10,10,10,28,14,37,0.00,4,,305
2012-11-25,53,40,26,17,14,10,63,41,18,30.16,30.07,29.97,10,10,10,17,8,22,0.00,0,,257
2012-11-26,62,51,40,35,22,13,52,37,22,30.18,30.14,30.06,10,10,10,12,4,16,0.00,3,,262
2012-11-27,51,44,37,43,38,33,86,74,61,30.27,30.18,30.13,10,10,10,12,2,14,0.06,7,Rain,335
2012-11-28,50,42,34,33,23,16,79,53,26,30.42,30.33,30.26,10,10,10,20,8,23,0.00,2,,309
2012-11-29,53,39,25,24,22,18,81,53,24,30.49,30.42,30.36,10,10,10,8,2,10,0.00,0,,110
2012-11-30,60,45,30,31,27,23,72,52,31,30.40,30.34,30.28,10,10,10,9,2,13,0.00,1,,264